Benton Harbor, MI

6:26 PM EST on February 22, 2018 (GMT -0500)
Southwest Michigan Regional

Weather History for KBEH - November, 2013

Change the Weather History Date:

Saturday, November 23, 2013

  Actual Average Record
Temperature  
Mean Temperature 27 °F -  
Max Temperature 33 °F 45 °F 66 °F (1999)
Min Temperature 21 °F 29 °F 11 °F (1971)
Degree Days  
Heating Degree Days 38    
Moisture  
Dew Point 15 °F    
Average Humidity 67    
Maximum Humidity 80    
Minimum Humidity 54    
Precipitation  
Precipitation 0.00 in - - ()
Sea Level Pressure  
Sea Level Pressure 30.50 in    
Wind  
Wind Speed 12 mph (NW)    
Max Wind Speed 20 mph    
Max Gust Speed 32 mph    
Visibility 5 miles    
Events Snow    
Averages and records for this station are not official NWS values.
T = Trace of Precipitation, MM = Missing Value Source: NWS Daily Summary

Daily Weather History Graph

Daily Weather History Graph

Search for Another Location

Airport or City:

Trip Planner

Search our weather history database for the weather conditions in past years. The results will help you decide how hot, cold, wet, or windy it might be!

Date:

Astronomy

Nov. 23, 2013 Rise Set
Actual Time 7:45 AM EST 5:18 PM EST
Civil Twilight 7:15 AM EST 5:48 PM EST
Nautical Twilight 6:40 AM EST 6:23 PM EST
Astronomical Twilight 6:07 AM EST 6:56 PM EST
Moon 10:48 PM EST (11/23) 12:00 PM EST (11/23)
Length of Visible Light 10h 33m
Length of Day
9h 32m
Waning Gibbous, 70% of the Moon is Illuminated
Nov 23
Waning Gibbous
Nov 25
Last Quarter
Dec 2
New
Dec 9
First Quarter
Dec 17
Full

Hourly Weather History & Observations

Time (EST) Temp. Windchill Dew Point Humidity Pressure Visibility Wind Dir Wind Speed Gust Speed Precip Events Conditions
12:53 AM 32.0 °F 22.5 °F 24.1 °F 73% 30.42 in 10.0 mi West 12.7 mph - N/A   Clear
1:53 AM 33.1 °F 23.9 °F 23.0 °F 66% 30.40 in 10.0 mi West 12.7 mph - N/A   Partly Cloudy
2:53 AM 32.0 °F 23.0 °F 18.0 °F 56% 30.39 in 10.0 mi West 11.5 mph - N/A   Clear
3:53 AM 32.0 °F 23.0 °F 19.9 °F 61% 30.39 in 10.0 mi WNW 11.5 mph - N/A   Clear
4:53 AM 32.0 °F 23.0 °F 19.0 °F 59% 30.38 in 10.0 mi WNW 11.5 mph - N/A   Clear
5:53 AM 30.9 °F 21.7 °F 21.0 °F 67% 30.37 in 10.0 mi WNW 11.5 mph 20.7 mph N/A   Scattered Clouds
6:53 AM 30.9 °F 20.7 °F 19.9 °F 64% 30.38 in 10.0 mi NW 13.8 mph 23.0 mph N/A   Overcast
7:53 AM 30.0 °F 20.5 °F 16.0 °F 56% 30.39 in 10.0 mi NW 11.5 mph 28.8 mph N/A   Overcast
8:53 AM 28.0 °F 17.5 °F 14.0 °F 56% 30.41 in 10.0 mi NNW 12.7 mph 20.7 mph N/A   Overcast
9:53 AM 27.0 °F 16.7 °F 15.1 °F 61% 30.45 in 10.0 mi NW 11.5 mph 27.6 mph N/A   Overcast
10:53 AM 26.1 °F 13.6 °F 12.9 °F 58% 30.48 in 9.0 mi NW 16.1 mph 25.3 mph 0.00 in   Overcast
11:30 AM 24.8 °F 12.4 °F 17.6 °F 74% 30.47 in 1.5 mi NW 15.0 mph 29.9 mph 0.00 in Snow Light Snow
11:36 AM 24.8 °F 13.4 °F 17.6 °F 74% 30.46 in 0.8 mi NW 12.7 mph 29.9 mph 0.00 in Snow Light Snow
11:43 AM 24.8 °F 14.0 °F 17.6 °F 74% 30.46 in 1.5 mi NNW 11.5 mph 23.0 mph 0.00 in Snow Light Snow
11:47 AM 26.6 °F 15.7 °F 15.8 °F 64% 30.46 in 3.0 mi NW 12.7 mph 28.8 mph 0.00 in Snow Light Snow
11:53 AM 26.1 °F 14.5 °F 15.1 °F 63% 30.49 in 7.0 mi NW 13.8 mph 28.8 mph 0.00 in   Overcast
12:42 PM 24.8 °F 12.9 °F 15.8 °F 69% 30.46 in 1.8 mi NNW 13.8 mph 28.8 mph 0.00 in Snow Light Snow
12:49 PM 24.8 °F 14.0 °F 17.6 °F 74% 30.46 in 1.0 mi NNW 11.5 mph 26.5 mph 0.00 in Snow Light Snow
12:53 PM 25.0 °F 12.6 °F 18.0 °F 75% 30.49 in 1.8 mi NW 15.0 mph 26.5 mph 0.00 in Snow Light Snow
12:56 PM 24.8 °F 14.0 °F 17.6 °F 74% 30.46 in 2.0 mi NNW 11.5 mph 26.5 mph 0.00 in Snow Light Snow
1:07 PM 24.8 °F 14.6 °F 17.6 °F 74% 30.46 in 3.0 mi NW 10.4 mph 31.1 mph 0.00 in Snow Light Snow
1:25 PM 24.8 °F 12.4 °F 17.6 °F 74% 30.46 in 1.8 mi NW 15.0 mph 26.5 mph 0.00 in Snow Light Snow
1:34 PM 24.8 °F 12.4 °F 15.8 °F 69% 30.47 in 3.0 mi NW 15.0 mph 25.3 mph 0.00 in Snow Light Snow
1:53 PM 25.0 °F 14.2 °F 14.0 °F 63% 30.50 in 10.0 mi NW 11.5 mph 25.3 mph 0.00 in   Overcast
2:18 PM 24.8 °F 12.4 °F 15.8 °F 69% 30.48 in 1.8 mi NNW 15.0 mph 32.2 mph 0.00 in Snow Light Snow
2:23 PM 23.0 °F 12.4 °F 15.8 °F 74% 30.48 in 0.8 mi NNW 10.4 mph 32.2 mph 0.00 in Snow Light Snow
2:34 PM 24.8 °F 12.9 °F 15.8 °F 69% 30.48 in 1.8 mi NW 13.8 mph 27.6 mph 0.00 in Snow Light Snow
2:37 PM 24.8 °F 11.1 °F 15.8 °F 69% 30.48 in 3.0 mi NW 18.4 mph 28.8 mph 0.00 in Snow Light Snow
2:48 PM 23.0 °F 11.1 °F 15.8 °F 74% 30.49 in 1.8 mi NW 12.7 mph 28.8 mph 0.00 in Snow Light Snow
2:53 PM 23.0 °F 11.1 °F 16.0 °F 74% 30.52 in 1.2 mi NW 12.7 mph 24.2 mph 0.00 in Snow Light Snow
2:58 PM 24.8 °F 12.4 °F 15.8 °F 69% 30.49 in 1.8 mi NW 15.0 mph 31.1 mph 0.00 in Snow Light Snow
3:00 PM 24.8 °F 14.0 °F 14.0 °F 64% 30.49 in 3.0 mi NNW 11.5 mph 31.1 mph 0.00 in Snow Light Snow
3:02 PM 24.8 °F 14.6 °F 14.0 °F 64% 30.50 in 1.8 mi NNW 10.4 mph 31.1 mph 0.00 in Snow Light Snow
3:10 PM 23.0 °F 10.6 °F 14.0 °F 68% 30.49 in 1.0 mi NW 13.8 mph 23.0 mph 0.00 in Snow Light Snow
3:13 PM 24.8 °F 10.7 °F 12.2 °F 59% 30.50 in 2.5 mi NW 19.6 mph 28.8 mph 0.00 in Snow Light Snow
3:19 PM 24.8 °F 12.4 °F 12.2 °F 59% 30.50 in 7.0 mi NNW 15.0 mph 28.8 mph 0.00 in Snow Light Snow
3:53 PM 24.1 °F 13.7 °F 10.0 °F 55% 30.54 in 9.0 mi NW 10.4 mph 20.7 mph 0.00 in   Overcast
4:15 PM 23.0 °F 14.7 °F 12.2 °F 63% 30.52 in 2.5 mi Variable 6.9 mph 21.9 mph 0.00 in Snow Light Snow
4:22 PM 23.0 °F 12.4 °F 10.4 °F 59% 30.53 in 9.0 mi NNW 10.4 mph 21.9 mph 0.00 in   Overcast
4:53 PM 23.0 °F 10.1 °F 12.0 °F 63% 30.56 in 3.0 mi NNW 15.0 mph 28.8 mph 0.00 in Snow Light Snow
5:53 PM 23.0 °F 13.1 °F 10.9 °F 60% 30.58 in 8.0 mi NW 9.2 mph 25.3 mph 0.00 in Snow Light Snow
6:53 PM 23.0 °F 14.7 °F 10.9 °F 60% 30.59 in 8.0 mi Variable 6.9 mph 19.6 mph 0.00 in Snow Light Snow
7:53 PM 23.0 °F 11.7 °F 12.9 °F 65% 30.61 in 3.0 mi NW 11.5 mph 23.0 mph 0.00 in Snow Light Snow
8:53 PM 21.9 °F 8.7 °F 12.0 °F 66% 30.61 in 4.0 mi NW 15.0 mph 25.3 mph 0.00 in Snow Light Snow
9:00 PM 21.2 °F 11.7 °F 15.8 °F 80% 30.59 in 1.8 mi NW 8.1 mph 25.3 mph 0.00 in Snow Light Snow
9:09 PM 23.0 °F 11.1 °F 12.2 °F 63% 30.59 in 2.5 mi NW 12.7 mph 24.2 mph 0.00 in Snow Light Snow
9:16 PM 23.0 °F 13.1 °F 8.6 °F 54% 30.58 in 7.0 mi NW 9.2 mph 24.2 mph 0.00 in Snow Light Snow
9:53 PM 21.9 °F 11.7 °F 12.0 °F 66% 30.60 in 4.0 mi NW 9.2 mph - 0.00 in Snow Light Snow
10:19 PM 21.2 °F 10.1 °F 14.0 °F 74% 30.59 in 2.0 mi NW 10.4 mph 23.0 mph 0.00 in Snow Light Snow
10:22 PM 21.2 °F 10.1 °F 14.0 °F 74% 30.59 in 1.8 mi NW 10.4 mph 23.0 mph 0.00 in Snow Light Snow
10:30 PM 21.2 °F 11.7 °F 14.0 °F 74% 30.58 in 2.0 mi NNW 8.1 mph 17.3 mph 0.00 in Snow Light Snow
10:38 PM 21.2 °F 8.9 °F 14.0 °F 74% 30.58 in 8.0 mi NW 12.7 mph 20.7 mph 0.00 in   Overcast
10:53 PM 21.9 °F 11.0 °F 14.0 °F 72% 30.62 in 4.0 mi NW 10.4 mph 19.6 mph 0.00 in Snow Light Snow
11:27 PM 21.2 °F 11.7 °F 14.0 °F 74% 30.59 in 1.8 mi NNW 8.1 mph 26.5 mph 0.00 in Snow Light Snow
11:39 PM 21.2 °F 9.5 °F 14.0 °F 74% 30.60 in 3.0 mi NNW 11.5 mph 20.7 mph 0.00 in Snow Light Snow
11:46 PM 21.2 °F 9.5 °F 14.0 °F 74% 30.60 in 4.0 mi NW 11.5 mph 21.9 mph 0.00 in Snow Light Snow
11:53 PM 21.0 °F 12.4 °F 15.1 °F 78% 30.63 in 1.5 mi NW 6.9 mph 18.4 mph 0.00 in Snow Light Snow